| time (UTC) | temp C | wind direction | speed KPH | gust KPH | rain 1hr cm | rain 24hr cm | rain mn cm | humidity % | barometer mb |
| 20260504081558 | 8 | 306 | 0.0 | 0.0 | 0.00 | 0.00 | 0.00 | 82 | 1019.7 |
| 20260504044526 | 11 | 306 | 0.0 | 1.6 | 0.00 | 0.00 | 0.00 | 67 | 1020.4 |
| 20260504043037 | 12 | 306 | 0.0 | 0.0 | 0.00 | 0.00 | 0.00 | 67 | 1020.5 |
| 20260504041523 | 12 | 306 | 0.0 | 0.0 | 0.00 | 0.00 | 0.00 | 65 | 1020.6 |
| 20260504040024 | 12 | 306 | 0.0 | 0.0 | 0.00 | 0.00 | 0.00 | 65 | 1020.6 |
| 20260504034518 | 12 | 306 | 0.0 | 0.0 | 0.00 | 0.00 | 0.00 | 64 | 1020.6 |
| 20260504033019 | 12 | 306 | 0.0 | 0.0 | 0.00 | 0.00 | 0.00 | 63 | 1020.7 |
| 20260504031518 | 13 | 306 | 0.0 | 0.0 | 0.00 | 0.00 | 0.00 | 62 | 1020.6 |
| 20260504030017 | 13 | 306 | 0.0 | 0.0 | 0.00 | 0.00 | 0.00 | 60 | 1020.5 |
| 20260504024517 | 13 | 306 | 0.0 | 0.0 | 0.00 | 0.00 | 0.00 | 59 | 1020.5 |
| 20260504023019 | 13 | 306 | 0.0 | 1.6 | 0.00 | 0.00 | 0.00 | 58 | 1020.3 |
| 20260504021515 | 13 | 306 | 0.0 | 0.0 | 0.00 | 0.00 | 0.00 | 57 | 1020.2 |
| 20260504020017 | 13 | 306 | 0.0 | 0.0 | 0.00 | 0.00 | 0.00 | 56 | 1019.9 |
| 20260504014515 | 14 | 306 | 0.0 | 0.0 | 0.00 | 0.00 | 0.00 | 55 | 1019.9 |
| 20260504013018 | 15 | 306 | 0.0 | 0.0 | 0.00 | 0.00 | 0.00 | 53 | 1019.7 |
| 20260504011520 | 15 | 306 | 0.0 | 0.0 | 0.00 | 0.00 | 0.00 | 52 | 1019.4 |
| 20260504010012 | 16 | 306 | 0.0 | 0.0 | 0.00 | 0.00 | 0.00 | 49 | 1019.4 |
| 20260504004511 | 16 | 306 | 0.0 | 1.6 | 0.00 | 0.00 | 0.00 | 47 | 1019.3 |
| 20260504003010 | 17 | 319 | 0.0 | 1.6 | 0.00 | 0.00 | 0.00 | 44 | 1019.1 |
| 20260504001509 | 17 | 305 | 0.0 | 3.2 | 0.00 | 0.00 | 0.00 | 42 | 1019.2 |
| 20260504000009 | 18 | 295 | 1.6 | 4.8 | 0.00 | 0.00 | 0.00 | 39 | 1019.1 |
| 20260503234508 | 18 | 36 | 1.6 | 6.4 | 0.00 | 0.00 | 0.00 | 38 | 1019.1 |
| 20260503233007 | 19 | 307 | 0.0 | 8.0 | 0.00 | 0.00 | 0.00 | 40 | 1019.0 |
| 20260503231513 | 20 | 306 | 1.6 | 8.0 | 0.00 | 0.00 | 0.00 | 40 | 1019.0 |
| 20260503230006 | 21 | 330 | 1.6 | 6.4 | 0.00 | 0.00 | 0.00 | 38 | 1019.0 |
| 20260503224509 | 21 | 21 | 1.6 | 8.0 | 0.00 | 0.00 | 0.00 | 38 | 1019.1 |
| 20260503223003 | 22 | 76 | 1.6 | 6.4 | 0.00 | 0.00 | 0.00 | 37 | 1019.2 |
| 20260503221501 | 21 | 314 | 1.6 | 8.0 | 0.00 | 0.00 | 0.00 | 36 | 1019.1 |
| 20260503220122 | 21 | 281 | 1.6 | 6.4 | 0.00 | 0.00 | 0.00 | 35 | 1019.2 |
| 20260503214557 | 21 | 354 | 1.6 | 8.0 | 0.00 | 0.00 | 0.00 | 36 | 1019.3 |
| 20260503213057 | 22 | 107 | 0.0 | 4.8 | 0.00 | 0.00 | 0.00 | 35 | 1019.4 |
| 20260503211555 | 22 | 302 | 0.0 | 8.0 | 0.00 | 0.00 | 0.00 | 36 | 1019.5 |
| 20260503210051 | 21 | 19 | 1.6 | 4.8 | 0.00 | 0.00 | 0.00 | 35 | 1019.6 |
| 20260503204548 | 21 | 287 | 0.0 | 8.0 | 0.00 | 0.00 | 0.00 | 36 | 1019.7 |
| 20260503203052 | 21 | 22 | 0.0 | 8.0 | 0.00 | 0.00 | 0.00 | 35 | 1020.0 |
| 20260503201545 | 21 | 271 | 1.6 | 8.0 | 0.00 | 0.00 | 0.00 | 36 | 1020.3 |
| 20260503200038 | 20 | 292 | 1.6 | 9.7 | 0.00 | 0.00 | 0.00 | 39 | 1020.5 |
| 20260503194534 | 19 | 299 | 3.2 | 8.0 | 0.00 | 0.00 | 0.00 | 39 | 1020.8 |
| 20260503193033 | 19 | 288 | 3.2 | 9.7 | 0.00 | 0.00 | 0.00 | 39 | 1021.0 |
| 20260503191537 | 19 | 301 | 1.6 | 8.0 | 0.00 | 0.00 | 0.00 | 40 | 1021.5 |
| 20260503190031 | 19 | 7 | 0.0 | 8.0 | 0.00 | 0.00 | 0.00 | 40 | 1021.6 |
| 20260503184530 | 19 | 98 | 1.6 | 4.8 | 0.00 | 0.00 | 0.00 | 41 | 1021.7 |
| 20260503183029 | 19 | 257 | 0.0 | 6.4 | 0.00 | 0.00 | 0.00 | 41 | 1021.9 |
| 20260503181527 | 18 | 119 | 0.0 | 8.0 | 0.00 | 0.00 | 0.00 | 42 | 1022.2 |
| 20260503180037 | 18 | 285 | 3.2 | 8.0 | 0.00 | 0.00 | 0.00 | 41 | 1022.2 |
| 20260503174523 | 18 | 271 | 3.2 | 9.7 | 0.00 | 0.00 | 0.00 | 41 | 1022.2 |
| 20260503173023 | 17 | 262 | 1.6 | 11.3 | 0.00 | 0.00 | 0.00 | 43 | 1022.4 |
| 20260503171525 | 18 | 10 | 1.6 | 6.4 | 0.00 | 0.00 | 0.00 | 42 | 1022.6 |